Regional Weather Roundup
Issued by NWS

Home | Current Version | Previous Version | Graphics & Text | Print | Product List | Glossary Off
Versions: 1 2 3 4 5 6 7 8 9 10 11 12 13 14 15 16 17 18 19 20 21 22 23 24 25 26 27 28 29 30 31 32 33 34 35 36 37 38 39 40 41 42 43 44 45 46 47 48 49 50

000
ASUS43 KDMX 212306
RWRIA

WEATHER ROUNDUP FOR IOWA
NATIONAL WEATHER SERVICE DES MOINES IA
600 PM CDT FRI JUL 21 2017

NOTE: "FAIR" INDICATES FEW OR NO CLOUDS BELOW 12,000 FEET WITH NO
SIGNIFICANT WEATHER AND/OR OBSTRUCTIONS TO VISIBILITY.

* - THESE STATIONS ARE NOT NWS STATIONS...THUS NOT UNDER NWS
QUALITY CONTROL.  THEY ALSO DO NOT REPORT WEATHER SUCH
AS PRECIPITATION OR FOG.

IAZ001>003-012>014-020>022-031>034-043>046-220000-
   NORTHWEST IOWA

CITY           SKY/WX    TMP DP  RH WIND       PRES   REMARKS
CARROLL *      CLOUDY    84  81  89 SE12G18   29.77F HX  98
CHEROKEE *     CLOUDY    82  76  80 NE9       29.80F HX  89
DENISON *      CLOUDY    91  79  66 S10G16    29.77F HX 107
ORANGE CITY *  SUNNY     84  77  79 E8        29.80F HX  94
SHELDON *      MOSUNNY   82  75  78 E9        29.80F HX  89
SIOUX CITY     SUNNY     90  80  72 E8        29.75F HX 107
SPENCER        CLOUDY    80  72  76 E12       29.83F HX  84
STORM LAKE *   CLOUDY    77  75  94 E10       29.81F
$$

IAZ055>058-069>071-079>083-090>094-220000-
   SOUTHWEST IOWA

CITY           SKY/WX    TMP DP  RH WIND       PRES   REMARKS
ATLANTIC *     MOSUNNY   95  79  59 S7        29.77F HX 112
AUDUBON *      CLOUDY    91  79  66 S10       29.79F HX 107
CLARINDA *     SUNNY     93  81  66 S13       29.79F HX 113
COUNCIL BLFS * SUNNY     95  77  55 S9        29.76F HX 109
CRESTON *      SUNNY     93  77  59 S17G26    29.82F HX 107
HARLAN  *      CLOUDY    95  81  63 S8G15     29.79F HX 115
LAMONI         SUNNY     93  77  59 S12       29.82F HX 107
RED OAK *      SUNNY     95  81  63 S12       29.77S HX 115
SHENANDOAH *   SUNNY     93  81  66 S10       29.76F HX 113
$$

IAZ047>049-059>061-072>074-084-220000-
   CENTRAL IOWA

CITY           SKY/WX    TMP DP  RH WIND       PRES   REMARKS
AMES           MOSUNNY   81  79  94 NE6       29.80F HX  90
ANKENY *       CLOUDY    84  81  89 CALM      29.78F HX  98
BOONE *        CLOUDY    81  79  94 E8        29.79S HX  89
CHARITON *     SUNNY     95  73  49 SW17      29.81S HX 105
DES MOINES     CLOUDY    97  73  45 S15       29.76F HX 107
GRINNELL*      DRIZZLE   83  79  87 E6        29.82F HX  95
KNOXVILLE *    MOSUNNY   95  72  46 SW13G21   29.79S HX 103
MARSHALLTOWN   CLOUDY    78  75  90 NE10      29.82S HX  81
NEWTON *       CLOUDY    84  81  89 SE7       29.79F HX  98
PELLA *        SUNNY     94  72  48 SW8       29.81S HX 102
$$

IAZ004>006-015-016-023>025-035-036-220000-
   NORTH CENTRAL IOWA

CITY           SKY/WX    TMP DP  RH WIND       PRES   REMARKS
ALGONA *       CLOUDY    77  75  94 E8        29.83F
CLARION *      CLOUDY    73  73 100 E8        29.81F
ESTHERVILLE    PTSUNNY   78  71  79 E7        29.83F HX  80
FORT DODGE *   CLOUDY    75  72  88 E12       29.80F
MASON CITY     CLOUDY    73  69  87 E10       29.86F
FOREST CITY *    N/A     73  70  88 E9        29.84F
WEBSTER CITY * CLOUDY    75  73  94 SE13G18   29.77F
IOWA FALLS *   LGT RAIN  75  73  91 SE8       29.82F
$$

IAZ007>011-017>019-026>030-037>042-050>054-066-220000-
   NORTHEAST IOWA

CITY           SKY/WX    TMP DP  RH WIND       PRES   REMARKS
CEDAR RAPIDS   LGT RAIN  73  73 100 S12       29.79F
CHARLES CITY * MOSUNNY   73  73 100 SE9       29.86F
CLINTON *      MOSUNNY   84  80  88 E7        29.84F HX  97
DECORAH *      CLOUDY    72  70  94 E10       29.86F
DUBUQUE        CLOUDY    73  70  90 NE12      29.86F
MONTICELLO *   CLOUDY    75  72  88 S22       29.91R
OELWEIN *      CLOUDY    72  72 100 E9        29.85F
WATERLOO       CLOUDY    75  69  81 E7        29.81F
$$

IAZ064-065-067-068-078-220000-
   EAST CENTRAL IOWA

CITY           SKY/WX    TMP DP  RH WIND       PRES   REMARKS
DAVENPORT      SUNNY     85  75  72 S5        29.85S HX  93
IOWA CITY      TSTM      73  72  96 S28G40    29.84F VSB 3/4
MT. PLEASANT * SUNNY     94  71  48 S14G22    29.83R HX 101
MUSCATINE *    SUNNY     88  77  70 S8        29.81F HX 100
QUAD CITIES    SUNNY     88  76  67 S5        29.81F HX  99
$$

IAZ062-063-075>077-085>089-095>099-220000-
   SOUTHEAST IOWA

CITY           SKY/WX    TMP DP  RH WIND       PRES   REMARKS
BURLINGTON     SUNNY     93  77  59 S10       29.83R HX 107
FAIRFIELD *    SUNNY     95  73  49 SW13G20   29.81S HX 105
FORT MADISON * SUNNY     93  73  52 SW14      29.84S HX 102
KEOKUK *       SUNNY     97  72  44 SW17      29.82S HX 105
OSKALOOSA *      N/A     92  75  57 SW7       29.81S HX 102
CENTERVILLE *    N/A     93  77  59 S14G20    29.85S HX 107
OTTUMWA        SUNNY     95  73  48 S14G22    29.80S HX 104
WASHINGTON *   SUNNY     91  77  62 SW6G17    29.83R HX 105
$$

ABBREVIATIONS USED IN REMARKS
   TC - TEMPERATURES IN CELSIUS
  WCI - WIND CHILL INDEX
   HX - HEAT INDEX
  VSB - VISIBILITY
$$




USA.gov is the U.S. government's official web portal to all federal, state and local government web resources and services.